When you browse on this site, cookies collect data to enhance your experience and personalize the content and advertising you see.
Visit our Privacy Policy to learn more. By continuing to use the site, you agree to this use of cookies and data.
EN

Hourly Weather Kiskunmajsa

Today, 11 July, Saturday

Time Temperature Precipitation Wind Pressure Humidity
00:00 +23°C° 0 mm 4 mps 751 mmHg 60%
01:00 +23°C° 0 mm 4 mps 751 mmHg 58%
02:00 +22°C° 0 mm 4 mps 751 mmHg 59%
03:00 +21°C° 0 mm 4 mps 751 mmHg 60%
04:00 +21°C° 0 mm 4 mps 751 mmHg 61%
05:00 +22°C° 0 mm 4 mps 751 mmHg 60%
06:00 +23°C° 0 mm 5 mps 751 mmHg 59%
07:00 +24°C° 0 mm 6 mps 751 mmHg 58%
08:00 +26°C° 0 mm 6 mps 751 mmHg 55%
09:00 +28°C° 0 mm 6 mps 751 mmHg 52%
10:00 +29°C° 0 mm 6 mps 751 mmHg 49%
11:00 +30°C° 0 mm 6 mps 751 mmHg 48%
12:00 +32°C° 0 mm 5 mps 751 mmHg 46%
13:00 +33°C° 0 mm 5 mps 750 mmHg 44%
14:00 +33°C° 0 mm 4 mps 750 mmHg 45%
15:00 +33°C° 0 mm 3 mps 750 mmHg 45%
16:00 +33°C° 0 mm 3 mps 750 mmHg 46%
17:00 +29°C° 0.2 mm 3 mps 750 mmHg 55%
18:00 +27°C° 0.2 mm 4 mps 750 mmHg 65%
19:00 +25°C° 0.2 mm 4 mps 750 mmHg 74%
20:00 +22°C° 0.7 mm 5 mps 751 mmHg 77%
21:00 +20°C° 0.7 mm 5 mps 752 mmHg 80%
22:00 +19°C° 0.7 mm 5 mps 752 mmHg 83%
23:00 +17°C° 0.7 mm 6 mps 752 mmHg 85%

Tomorrow, 12 July, Sunday

Time Temperature Precipitation Wind Pressure Humidity
00:00 +17°C° 0.7 mm 6 mps 753 mmHg 88%
01:00 +16°C° 0.7 mm 6 mps 753 mmHg 90%
02:00 +16°C° 1.5 mm 6 mps 753 mmHg 90%
03:00 +16°C° 1.5 mm 6 mps 753 mmHg 91%
04:00 +15°C° 1.5 mm 6 mps 754 mmHg 91%
05:00 +16°C° 0.1 mm 5 mps 754 mmHg 89%
06:00 +16°C° 0.1 mm 5 mps 755 mmHg 87%
07:00 +16°C° 0.1 mm 5 mps 755 mmHg 85%
08:00 +18°C° 0.1 mm 4 mps 755 mmHg 82%
09:00 +18°C° 0.1 mm 4 mps 756 mmHg 79%
10:00 +18°C° 0.1 mm 4 mps 756 mmHg 76%
11:00 +19°C° 0.1 mm 4 mps 756 mmHg 73%
12:00 +19°C° 0.1 mm 4 mps 756 mmHg 70%
13:00 +20°C° 0.1 mm 4 mps 756 mmHg 67%
14:00 +20°C° 0 mm 4 mps 756 mmHg 66%
15:00 +20°C° 0 mm 4 mps 756 mmHg 65%
16:00 +21°C° 0 mm 4 mps 756 mmHg 63%
17:00 +20°C° 0 mm 3 mps 756 mmHg 68%
18:00 +19°C° 0 mm 2 mps 756 mmHg 72%
19:00 +18°C° 0 mm 2 mps 756 mmHg 76%
20:00 +17°C° 0 mm 2 mps 757 mmHg 78%
21:00 +16°C° 0 mm 1 mps 757 mmHg 79%
22:00 +15°C° 0 mm 1 mps 757 mmHg 81%
23:00 +15°C° 0 mm 2 mps 757 mmHg 80%

Day after tomorrow, 13 July, Monday

Time Temperature Precipitation Wind Pressure Humidity
00:00 +15°C° 0 mm 2 mps 757 mmHg 79%
01:00 +15°C° 0 mm 2 mps 757 mmHg 78%
02:00 +14°C° 0 mm 2 mps 757 mmHg 79%
03:00 +14°C° 0 mm 2 mps 757 mmHg 80%
04:00 +14°C° 0 mm 2 mps 756 mmHg 80%
05:00 +15°C° 0 mm 2 mps 757 mmHg 76%
06:00 +17°C° 0 mm 2 mps 757 mmHg 72%
07:00 +18°C° 0 mm 2 mps 757 mmHg 67%
08:00 +20°C° 0 mm 2 mps 757 mmHg 63%
09:00 +21°C° 0 mm 3 mps 757 mmHg 58%
10:00 +22°C° 0 mm 3 mps 756 mmHg 53%
11:00 +24°C° 0 mm 3 mps 756 mmHg 51%
12:00 +24°C° 0 mm 3 mps 756 mmHg 49%
13:00 +25°C° 0 mm 3 mps 756 mmHg 48%
14:00 +25°C° 0 mm 3 mps 755 mmHg 48%
15:00 +25°C° 0 mm 3 mps 755 mmHg 49%
16:00 +25°C° 0 mm 3 mps 754 mmHg 49%
17:00 +22°C° 0 mm 3 mps 754 mmHg 55%
18:00 +21°C° 0 mm 2 mps 754 mmHg 61%
19:00 +20°C° 0 mm 2 mps 754 mmHg 67%
20:00 +19°C° 0 mm 2 mps 754 mmHg 68%
21:00 +18°C° 0 mm 2 mps 754 mmHg 69%
22:00 +18°C° 0 mm 1 mps 754 mmHg 70%
23:00 +16°C° 0 mm 1 mps 754 mmHg 71%

14 July, Tuesday

Time Temperature Precipitation Wind Pressure Humidity
00:00 +16°C° 0 mm 1 mps 754 mmHg 72%
01:00 +15°C° 0 mm 1 mps 754 mmHg 73%
02:00 +15°C° 0 mm 2 mps 754 mmHg 74%
03:00 +15°C° 0 mm 2 mps 754 mmHg 74%
04:00 +14°C° 0 mm 2 mps 754 mmHg 75%
05:00 +15°C° 0 mm 2 mps 754 mmHg 72%
06:00 +17°C° 0 mm 3 mps 754 mmHg 69%
07:00 +18°C° 0 mm 3 mps 755 mmHg 67%
08:00 +20°C° 0 mm 3 mps 755 mmHg 61%
09:00 +21°C° 0 mm 3 mps 755 mmHg 54%
10:00 +24°C° 0 mm 3 mps 755 mmHg 48%
11:00 +25°C° 0 mm 3 mps 754 mmHg 47%
12:00 +25°C° 0 mm 3 mps 754 mmHg 45%
13:00 +26°C° 0 mm 3 mps 754 mmHg 44%
14:00 +26°C° 0 mm 3 mps 753 mmHg 44%
15:00 +26°C° 0 mm 3 mps 753 mmHg 45%
16:00 +26°C° 0 mm 3 mps 753 mmHg 45%
17:00 +24°C° 0 mm 2 mps 753 mmHg 50%
18:00 +23°C° 0 mm 2 mps 753 mmHg 56%
19:00 +21°C° 0 mm 2 mps 753 mmHg 61%
20:00 +20°C° 0 mm 2 mps 753 mmHg 63%
21:00 +19°C° 0 mm 2 mps 753 mmHg 65%
22:00 +19°C° 0 mm 1 mps 753 mmHg 67%
23:00 +18°C° 0 mm 1 mps 753 mmHg 69%

15 July, Wednesday

Time Temperature Precipitation Wind Pressure Humidity
00:00 +16°C° 0 mm 1 mps 753 mmHg 71%
01:00 +16°C° 0 mm 1 mps 753 mmHg 74%
02:00 +16°C° 0 mm 1 mps 753 mmHg 75%
03:00 +15°C° 0 mm 1 mps 753 mmHg 76%
04:00 +14°C° 0 mm 0 mps 753 mmHg 77%
05:00 +18°C° 0 mm 1 mps 753 mmHg 72%
06:00 +19°C° 0 mm 1 mps 754 mmHg 67%
07:00 +21°C° 0 mm 1 mps 754 mmHg 62%
08:00 +22°C° 0 mm 1 mps 754 mmHg 58%
09:00 +24°C° 0 mm 1 mps 754 mmHg 53%
10:00 +25°C° 0 mm 1 mps 754 mmHg 48%
11:00 +26°C° 0 mm 1 mps 754 mmHg 45%
12:00 +27°C° 0 mm 1 mps 753 mmHg 42%
13:00 +27°C° 0 mm 1 mps 753 mmHg 39%
14:00 +27°C° 0 mm 1 mps 753 mmHg 39%
15:00 +27°C° 0 mm 1 mps 752 mmHg 38%
16:00 +25°C° 0 mm 0 mps 752 mmHg 37%
17:00 +26°C° 0 mm 1 mps 752 mmHg 42%
18:00 +25°C° 0 mm 1 mps 752 mmHg 47%
19:00 +23°C° 0 mm 1 mps 752 mmHg 53%
20:00 +22°C° 0 mm 1 mps 752 mmHg 54%
21:00 +21°C° 0 mm 1 mps 752 mmHg 54%
22:00 +20°C° 0 mm 1 mps 753 mmHg 55%
23:00 +20°C° 0 mm 1 mps 753 mmHg 57%

16 July, Thursday

Time Temperature Precipitation Wind Pressure Humidity
00:00 +20°C° 0 mm 1 mps 753 mmHg 58%
01:00 +19°C° 0 mm 1 mps 753 mmHg 59%
02:00 +19°C° 0 mm 1 mps 753 mmHg 60%
03:00 +19°C° 0 mm 1 mps 752 mmHg 61%
04:00 +18°C° 0 mm 1 mps 752 mmHg 63%
05:00 +20°C° 0 mm 1 mps 752 mmHg 60%
06:00 +21°C° 0 mm 1 mps 753 mmHg 58%
07:00 +23°C° 0 mm 1 mps 753 mmHg 56%
08:00 +24°C° 0 mm 2 mps 753 mmHg 52%
09:00 +26°C° 0 mm 2 mps 753 mmHg 48%
10:00 +28°C° 0 mm 3 mps 753 mmHg 44%
11:00 +28°C° 0 mm 3 mps 753 mmHg 44%
12:00 +29°C° 0 mm 4 mps 752 mmHg 44%
13:00 +30°C° 0 mm 4 mps 752 mmHg 43%
14:00 +29°C° 0 mm 5 mps 752 mmHg 45%
15:00 +29°C° 0 mm 5 mps 752 mmHg 46%
16:00 +28°C° 0 mm 5 mps 751 mmHg 48%
17:00 +27°C° 0 mm 4 mps 751 mmHg 54%
18:00 +25°C° 0 mm 4 mps 751 mmHg 61%
19:00 +24°C° 0 mm 3 mps 751 mmHg 67%
20:00 +22°C° 0 mm 3 mps 752 mmHg 69%
21:00 +21°C° 0 mm 3 mps 752 mmHg 71%
22:00 +20°C° 0 mm 2 mps 752 mmHg 74%
23:00 +19°C° 0 mm 2 mps 752 mmHg 74%
Show more